Regional Weather Roundup
Issued by NWS Boston, MA

Current Version | Previous Version | Text Only | Print | Product List | Glossary Off
Versions: 1 2 3 4 5 6 7 8 9 10 11 12 13 14 15 16 17 18 19 20 21 22 23 24 25 26 27 28 29 30 31 32 33 34 35 36 37 38 39 40 41 42 43 44 45 46 47 48 49 50
057 ASUS41 KBOX 211610 RWRBOX REGIONAL WEATHER ROUNDUP NATIONAL WEATHER SERVICE TAUNTON MA 1200 PM EDT THU SEP 21 2017 NOTE: "FAIR" INDICATES FEW OR NO CLOUDS BELOW 12,000 FEET WITH NO SIGNIFICANT WEATHER AND/OR OBSTRUCTIONS TO VISIBILITY. MAZALL-211700- EASTERN MASSACHUSETTS CITY SKY/WX TMP DP RH WIND PRES REMARKS BOSTON CLOUDY 68 52 56 N29G39 30.02S BEVERLY CLOUDY 68 52 56 N16G29 30.03S LAWRENCE CLOUDY 72 55 55 NE15G26 30.06S BEDFORD PTSUNNY 70 55 59 N15G21 30.03S BLUE HILL N/A 68 52 56 N25G39 30.01S NORWOOD PTSUNNY 73 55 53 N13G28 30.01S MARSHFIELD CLOUDY 64 57 77 N12G23 29.99R PLYMOUTH CLOUDY 65 54 67 N24G38 29.97R TAUNTON CLOUDY 68 54 60 N10G28 29.97S NEW BEDFORD CLOUDY 66 56 70 N16G29 29.94S $$ MAZALL-211700- CAPE COD AND THE ISLANDS CITY SKY/WX TMP DP RH WIND PRES REMARKS FALMOUTH NOT AVBL HYANNIS CLOUDY 62 57 83 N25G36 29.87S HAZE CHATHAM LGT RAIN 62 60 93 N13G35 29.87R FOG PROVINCETOWN CLOUDY 62 55 77 N26G36 29.93S NANTUCKET LGT RAIN 62 62 100 N35G49 29.79S FOG MARTHAS VNYRD LGT RAIN 63 58 83 N22G37 29.88R $$ MAZALL-211700- CENTRAL AND WESTERN MASSACHUSETTS CITY SKY/WX TMP DP RH WIND PRES REMARKS WORCESTER CLOUDY 67 57 70 NE13G23 30.05S FITCHBURG CLOUDY 73 60 63 N12G17 30.06S ORANGE CLOUDY 74 60 61 NE14G21 30.06S SPRINGFIELD CLOUDY 75 60 58 NE17 30.02S WESTFIELD CLOUDY 76 62 62 N14G25 30.03S NORTH ADAMS PTSUNNY 74 63 68 VRB6 30.06F PITTSFIELD MOSUNNY 76 59 55 N7 30.06F $$ RIZALL-211700- RHODE ISLAND CITY SKY/WX TMP DP RH WIND PRES REMARKS PROVIDENCE PTSUNNY 72 60 66 N20G37 29.98S NEWPORT CLOUDY 68 59 73 N23G32 29.94S BLOCK ISLAND CLOUDY 69 60 73 N20G35 29.93S SMITHFIELD CLOUDY 70 57 64 N21G31 30.01S WESTERLY CLOUDY 72 61 68 N13G23 29.95S $$ CTZALL-211700- CONNECTICUT CITY SKY/WX TMP DP RH WIND PRES REMARKS BRADLEY INTL CLOUDY 76 63 64 N13 30.02S HARTFORD CLOUDY 75 63 66 N13 30.01S BRIDGEPORT CLOUDY 76 62 62 NE16G24 30.00S DANBURY CLOUDY 77 62 59 N15 30.04F GROTON CLOUDY 72 61 68 N20G26 29.95R NEW HAVEN CLOUDY 74 61 63 N22G29 29.99S CHESTER FAIR 73 63 68 N13G20 29.99S MERIDEN CLOUDY 74 61 63 N13G21 30.00S WILLIMANTIC CLOUDY 73 61 65 N18G25 30.00S OXFORD CLOUDY 73 62 68 NE13G22 30.04S $$ MEZ002-015-021-024-NHZ003-005-008-011-012-014-VTZ005-008-211700- NORTHERN NEW ENGLAND CITY SKY/WX TMP DP RH WIND PRES REMARKS PORTLAND ME PTSUNNY 73 52 47 N17G24 30.08S BANGOR ME CLOUDY 73 49 42 NE10G21 30.12F CONCORD NH MOSUNNY 75 53 46 NE13G20 30.07F MANCHESTER NH PTSUNNY 73 54 51 N16 30.05S NASHUA NH CLOUDY 71 59 65 N9 30.06S PORTSMOUTH NH PTSUNNY 72 56 55 NE12 30.04F JAFFREY NH PTSUNNY 71 59 65 VRB6 30.08F KEENE NH PTSUNNY 78 60 53 NE13 30.06F BURLINGTON VT MOSUNNY 72 60 66 N7 30.12F MT. WASHINGTON NOT AVBL $$ NYZ052-076-211700- EASTERN NEW YORK CITY SKY/WX TMP DP RH WIND PRES REMARKS ALBANY CLOUDY 73 63 70 NE6 30.08F NEW YORK CITY CLOUDY 79 64 60 N13 30.00F $$ ANZALL-211700- MARINE OBSERVATIONS STATION/POSITION TIME TEMP WIND PRES VSBY WAVE AIR SEA DIR/SP/G HT/PER (UTC) (F) (DEG/KT/KT) (MB) (MI) (FT/S) BOSTON BUOY 1550 63 60 20/ 25/ 29 1014.9R 11/ 9 BUZZARDS BAY 1600 66 360/ 35/ 39 1011.8F NANTUCKET SOUND 1550 62 63 360/ 29/ 35 1009.3R 6/ 5 MASS BAY-STELLWA 1504 63 62 20/ 23/ 29 1015.0R 12/11 ISLE OF SHOALS 1600 64 20/ 23/ 26 1016.8R S OF BLOCK IS NOT AVBL $$ ......................KEY......................... SKY/WX - SKY CONDITION/PRESENT WEATHER TMP - TEMPERATURE IN FAHRENHEIT DWPT - DEWPOINT IN FAHRENHEIT RH - RELATIVE HUMIDITY IN PERCENT WIND - DIRECTION AND SPEED IN MPH PRES - MEAN SEA LEVEL PRESSURE IN INCHES OF HG WCI - WIND CHILL INDEX VSB - VISIBILITY IN MILES HX - HEAT INDEX TC - TEMPERATURE IN CELSIUS VRB - VARIABLE WIND DIRECTION N/A - NOT AVAILABLE

USA.gov is the U.S. government's official web portal to all federal, state and local government web resources and services.